Location: Enikep?du
(16.5133°N, 80.7066°E)
Time: 06:49:49
(UTC+00:00)

Delta 2 Rocket - Pass Details

Date: 20 January 2020
Orbit: 416 x 809 km, 35.6° (Epoch: 18 February)

Event Time Altitude Azimuth Distance (km) Brightness Sun altitude
Exits shadow 00:31:13 11° 314° (NW) 1,417 4.9 -9.4°
Maximum altitude 00:34:19 55° 32° (NNE) 500 3.2 -8.7°
Drops below altitude 10° 00:37:39 10° 112° (ESE) 1,511 7.3 -8.0°
Sets 00:39:52 0° 117° (ESE) 2,412 8.9 -7.5°
